Weather History for PAHN - March, 2013

Change the Weather History Date:

Saturday, March 30, 2013

  Actual Average Record
Temperature  
Mean Temperature 38 °F -  
Max Temperature 42 °F 38 °F 55 °F (1993)
Min Temperature 35 °F 28 °F 19 °F (2008)
Degree Days  
Heating Degree Days 27    
Moisture  
Dew Point 34 °F    
Average Humidity 86    
Maximum Humidity 92    
Minimum Humidity 76    
Precipitation  
Precipitation 0.00 in - - ()
Sea Level Pressure  
Sea Level Pressure 30.28 in    
Wind  
Wind Speed 10 mph (East)    
Max Wind Speed 14 mph    
Max Gust Speed 28 mph    
Visibility 10 miles    
Events Rain    
Averages and records for this station are not official NWS values.
T = Trace of Precipitation, MM = Missing Value Source: NWS Daily Summary

Daily Weather History Graph

Daily Weather History Graph

Search for Another Location

Airport or City:

Trip Planner

Search our weather history database for the weather conditions in past years. The results will help you decide how hot, cold, wet, or windy it might be!

Date:

Astronomy

Mar. 30, 2013 Rise Set
Actual Time 6:32 AM AKDT 7:41 PM AKDT
Civil Twilight 5:51 AM AKDT 8:22 PM AKDT
Nautical Twilight 5:00 AM AKDT 9:14 PM AKDT
Astronomical Twilight 4:01 AM AKDT 10:13 PM AKDT
Moon No Moon Rise 7:37 AM AKDT (3/30)
Length of Visible Light 14h 31m
Length of Day
13h 08m
Waning Gibbous, 85% of the Moon is Illuminated
Mar 30
Waning Gibbous
Apr 2
Last Quarter
Apr 10
New
Apr 18
First Quarter
Apr 25
Full

Hourly Weather History & Observations

Time (AKDT) Temp. Windchill Dew Point Humidity Pressure Visibility Wind Dir Wind Speed Gust Speed Precip Events Conditions
12:30 AM 35.6 °F 27.1 °F 30.2 °F 81% 30.23 in 10.0 mi East 12.7 mph 21.9 mph 0.00 in Rain Light Rain
12:54 AM 35.1 °F 25.9 °F 32.0 °F 89% 30.23 in 10.0 mi East 13.8 mph 27.6 mph 0.00 in   Overcast
1:17 AM 35.6 °F 28.0 °F 32.0 °F 87% 30.22 in 10.0 mi East 10.4 mph 18.4 mph 0.00 in Rain Light Rain
1:54 AM 35.1 °F 27.4 °F 32.0 °F 89% 30.22 in 10.0 mi East 10.4 mph 24.2 mph 0.00 in Rain Light Rain
2:54 AM 35.1 °F 26.9 °F 32.0 °F 89% 30.21 in 10.0 mi East 11.5 mph 19.6 mph 0.00 in   Overcast
3:54 AM 35.1 °F 26.4 °F 33.1 °F 92% 30.20 in 10.0 mi East 12.7 mph 20.7 mph 0.00 in   Overcast
4:54 AM 35.1 °F 26.4 °F 33.1 °F 92% 30.20 in 10.0 mi ENE 12.7 mph 23.0 mph 0.00 in Rain Light Rain
5:54 AM 36.0 °F 28.0 °F 33.1 °F 89% 30.20 in 10.0 mi ENE 11.5 mph 20.7 mph 0.00 in Rain Light Rain
6:54 AM 36.0 °F 27.1 °F 33.1 °F 89% 30.22 in 10.0 mi East 13.8 mph 23.0 mph 0.00 in   Overcast
7:54 AM 36.0 °F 29.6 °F 33.1 °F 89% 30.22 in 10.0 mi East 8.1 mph 19.6 mph N/A   Overcast
8:38 AM 37.4 °F 31.4 °F 33.8 °F 87% 30.23 in 10.0 mi East 8.1 mph 17.3 mph N/A   Overcast
8:54 AM 37.0 °F 31.0 °F 33.1 °F 86% 30.24 in 10.0 mi East 8.1 mph 19.6 mph N/A   Overcast
9:54 AM 37.0 °F 31.0 °F 34.0 °F 89% 30.26 in 10.0 mi East 8.1 mph - 0.00 in   Overcast
10:54 AM 37.9 °F 31.5 °F 34.0 °F 86% 30.28 in 10.0 mi East 9.2 mph - N/A   Overcast
11:54 AM 39.0 °F 34.8 °F 34.0 °F 82% 30.30 in 10.0 mi Variable 5.8 mph - N/A   Overcast
12:54 PM 39.9 °F 34.5 °F 35.1 °F 83% 30.31 in 10.0 mi East 8.1 mph - N/A   Overcast
1:54 PM 39.9 °F 33.4 °F 35.1 °F 83% 30.32 in 10.0 mi East 10.4 mph 16.1 mph N/A   Overcast
2:54 PM 41.0 °F 35.2 °F 34.0 °F 76% 30.32 in 10.0 mi East 9.2 mph - N/A   Overcast
3:08 PM 41.0 °F 35.8 °F 35.6 °F 81% 30.31 in 10.0 mi East 8.1 mph 16.1 mph N/A   Overcast
3:54 PM 41.0 °F 36.4 °F 34.0 °F 76% 30.32 in 10.0 mi East 6.9 mph - N/A   Overcast
4:54 PM 39.9 °F 35.1 °F 35.1 °F 83% 30.33 in 10.0 mi East 6.9 mph - N/A   Overcast
5:54 PM 41.0 °F 35.8 °F 35.1 °F 79% 30.32 in 10.0 mi East 8.1 mph - N/A   Overcast
6:06 PM 39.2 °F 34.2 °F 35.6 °F 87% 30.32 in 10.0 mi Variable 6.9 mph - N/A   Overcast
6:54 PM 39.9 °F 35.1 °F 35.1 °F 83% 30.33 in 10.0 mi ESE 6.9 mph - 0.00 in   Overcast
7:54 PM 39.9 °F 35.8 °F 35.1 °F 83% 30.34 in 10.0 mi East 5.8 mph - 0.00 in   Overcast
8:54 PM 39.9 °F 34.5 °F 35.1 °F 83% 30.34 in 10.0 mi ENE 8.1 mph - N/A   Overcast
9:16 PM 39.2 °F 33.6 °F 35.6 °F 87% 30.33 in 10.0 mi East 8.1 mph - N/A   Overcast
9:40 PM 39.2 °F 35.9 °F 35.6 °F 87% 30.34 in 10.0 mi East 4.6 mph - N/A   Overcast
9:54 PM 37.9 °F 35.5 °F 35.1 °F 89% 30.35 in 10.0 mi SE 3.5 mph - N/A   Overcast
10:54 PM 37.0 °F - 34.0 °F 89% 30.35 in 10.0 mi Calm Calm - N/A   Overcast
11:08 PM 37.4 °F - 33.8 °F 87% 30.34 in 10.0 mi Calm Calm - N/A   Overcast
11:54 PM 37.0 °F 34.5 °F 34.0 °F 89% 30.36 in 10.0 mi NW 3.5 mph - N/A   Overcast